#timestamp,LO_Frequency,Hit,StdDev 
1686870015.8,286046997.5,N
1686870035.6,286046997.3,N
1686870055.4,286046995.1,Y
1686870075.3,286046998.8,P
1686870095.1,286046998.1,P
1686870115.8,286046998.2,P
1686870135.7,286046998.4,Y
1686870155.5,286046999.9,P
1686870175.4,286047000.9,N
1686870195.2,286047000.9,N
1686870215.0,286047001.0,N
1686870215.9,286047001.0,N
1686870235.8,286047000.4,N
1686870255.6,286047002.3,N
1686870275.4,286047002.4,N
1686870295.3,286047002.8,N
1686870315.1,286047000.2,N
1686870335.9,286047000.8,N
1686870355.7,286047000.6,N
1686870375.5,286046998.1,N
1686870395.4,286046998.3,N
1686870415.2,286046998.9,N
1686870435.0,286046999.1,N
1686870435.9,286046999.1,N
1686870455.8,286046998.8,N
1686870475.6,286046999.3,N
1686870495.5,286046996.7,N
1686870515.3,286046999.3,N
1686870535.1,286046998.3,N
1686870555.9,286046998.7,N
1686870575.7,286046998.4,N
1686870595.6,286046998.2,N
1686870615.4,286047000.7,N
1686870635.2,286046998.2,N
1686870655.1,286046998.7,N
1686870656.0,286046998.7,N
1686870705.8,286046997.0,E
1686870715.8,286046999.4,N
1686870735.6,286047001.0,P
1686870755.4,286046999.8,N
1686870775.3,286047002.1,Y
1686870795.1,286047002.6,P
1686870815.9,286047002.3,N
1686870835.7,286047002.5,N
1686870855.5,286046999.8,N
1686870875.4,286047002.7,N
1686870895.2,286046999.9,N
1686870915.0,286047001.9,N
1686870916.0,286047001.9,N
1686870935.8,286047002.1,N
1686870955.6,286047001.6,N
1686870975.5,286047002.0,N
1686870995.3,286047002.6,N
1686871015.1,286047002.2,N
1686871035.9,286047002.6,N
1686871055.7,286047002.4,N
1686871075.6,286047002.8,N
1686871095.4,286047000.3,N
1686871115.2,286047002.8,N
1686871135.1,286047000.1,N
1686871136.0,286047000.1,N
1686871155.8,286047002.2,N
1686871175.6,286047002.5,N
1686871195.5,286047001.5,N
1686871215.3,286047001.8,N
1686871235.2,286047002.6,N
1686871255.9,286047002.3,N
1686871275.7,286047000.2,N
1686871295.6,286047002.3,N
1686871315.4,286047000.1,N
1686871335.2,286047000.2,N
1686871355.1,286047002.5,N
1686871356.0,286047002.5,N
1686871375.8,286047002.7,N
1686871395.7,286047001.5,N
1686871415.5,286047000.0,N
1686871435.3,286047000.8,N
1686871455.2,286047000.6,N
1686871475.0,286047000.5,N
1686871475.9,286047000.5,N
1686871495.8,286047001.1,N
1686871515.6,286047001.0,N
1686871535.4,286047002.3,N
1686871555.3,286047002.2,N
1686871575.1,286047001.9,N
1686871595.8,286047000.4,N
1686871615.7,286047000.2,N
1686871635.5,286046999.7,N
1686871655.4,286047002.4,N
1686871675.2,286047002.8,N
1686871695.0,286047001.9,N
1686871695.9,286047001.9,N
1686871715.8,286047000.4,N
1686871735.6,286046998.6,N
1686871755.4,286047000.7,N
1686871775.3,286047000.3,N
1686871795.1,286046999.7,N
1686871815.9,286047000.5,N
1686871835.7,286047000.7,N
1686871855.5,286047000.9,N
1686871875.4,286046999.7,N
1686871895.2,286047002.7,N
1686871915.0,286047002.7,N
1686871915.9,286047002.7,N
1686871935.8,286046999.7,N
1686871955.6,286047000.1,N
1686871975.5,286047000.6,N
1686871995.3,286047000.1,N
1686872015.1,286047000.6,N
1686872035.9,286047001.0,N
1686872055.7,286047000.9,N
1686872075.5,286046998.3,N
1686872095.4,286046998.8,N
1686872115.2,286046999.2,N
1686872135.1,286046999.6,N
1686872136.0,286046999.6,N
1686872155.8,286046999.1,N
1686872175.6,286046997.3,N
1686872195.5,286046996.8,N
1686872215.3,286046997.4,N
1686872235.1,286046999.6,N
1686872255.9,286046996.8,N
1686872275.7,286046997.1,N
1686872295.6,286046997.2,N
1686872315.4,286046999.6,N
1686872335.2,286046994.9,Y
1686872355.1,286046995.8,P
1686872356.0,286046995.8,N
1686872375.8,286046997.8,N
1686872395.7,286046994.9,Y
1686872415.5,286046998.3,P
1686872435.3,286046998.1,P
1686872455.2,286046998.5,P
1686872475.0,286047000.7,N
1686872475.9,286047000.7,N
1686872495.8,286047001.0,N
1686872515.6,286047000.6,N
1686872535.4,286047002.8,N
1686872555.3,286047002.7,N
1686872575.1,286047002.5,N
1686872595.8,286047001.7,N
1686872615.7,286046999.8,N
1686872635.5,286047000.8,N
1686872655.4,286047002.6,N
1686872675.2,286047002.6,N
1686872695.0,286047002.8,N
1686872695.9,286047002.8,N
1686872715.8,286047000.1,N
1686872735.6,286047002.8,N
1686872755.5,286047002.1,N
1686872775.3,286047004.3,N
1686872795.1,286047003.9,N
1686872815.9,286047001.5,N
1686872835.7,286047003.6,N
1686872855.5,286047003.5,N
1686872875.4,286047003.9,N
1686872895.2,286047004.4,N
1686872915.1,286047004.3,N
1686872916.0,286047004.3,N
1686872935.8,286047004.2,N
1686872955.6,286047004.0,N
1686872975.5,286047003.7,N
1686872995.3,286047003.2,N
1686873015.2,286047003.0,N
1686873035.9,286047002.9,N
1686873055.7,286047003.4,N
1686873075.6,286047005.6,Y
1686873095.4,286047002.1,P
1686873115.2,286047001.5,P
1686873135.1,286047002.0,P
1686873136.0,286047002.0,Y
1686873155.8,286047000.6,P
1686873175.7,286047000.1,N
1686873195.5,286047002.7,P
1686873215.3,286047000.3,N
1686873235.2,286047002.7,N
1686873255.0,286047002.4,N
1686873255.9,286047002.4,N
1686873275.8,286047002.2,N
1686873295.6,286047003.9,Y
1686873315.4,286047002.3,P
1686873335.3,286047002.2,P
1686873355.1,286047000.1,N
1686873375.8,286047000.2,N
1686873395.7,286047000.4,N
1686873415.5,286047000.3,N
1686873435.4,286047002.8,Y
1686873455.2,286047000.7,P
1686873475.0,286047000.3,N
1686873475.9,286047000.3,N
1686873495.8,286047000.4,N
1686873515.6,286047000.2,N
1686873535.4,286047000.4,N
1686873555.3,286047002.6,Y
1686873575.1,286046999.8,P
1686873595.9,286047000.3,N
